Vertical_Velocity
1 -3 3 -2 -0 3 -1 1 -2 -0 1 -1 -0 -2 1 1 -0 -5 -2 -1 -3 -3 -1 0 -0 -2 -2 -0 -2 -5 -7 -8 -4 -5 -1 1 1 1 -0 3 3 2 2 1 -2 -3 -0 0 -6 -9 6 3 -0 1
13 -1 3 -1 -1 -1 -2 -2 -5 2 -0 -2 4 1 0 -3 1 -4 -6 -3 -6 -3 -1 -1 -2 -1 0 -2 -1 0 -3 2 2 -3 -2 -1 -1 -2 1 -0 -3 -4 6 2 3 4 3 4 2 5 -0 -1 4 -3
4 3 -0 4 0 -2 1 -1 -1 0 3 2 -1 -0 -0 -4 -2 -4 -3 -3 -2 -2 -1 -3 2 -0 -2 -4 1 -3 -0 1 -2 9 -2 -1 1 0 0 -0 -1 -3 0 -3 -1 4 3 2 -1 -2 -1 -2 -0 1
0 -3 -2 -2 -0 4 -1 -0 -0 -1 1 1 0 2 -1 -2 -7 -1 -3 -2 -3 -3 -3 -1 1 1 3 -2 1 -2 -3 1 4 3 -0 -0 0 0 1 -2 -3 3 -3 1 3 4 1 -0 1 1 1 2 -0 3
1 -1 0 -0 -0 1 3 1 2 1 1 -1 0 -2 -1 -4 -4 -1 -2 0 -5 -1 -1 -5 -1 4 1 -0 -2 -3 -2 0 -1 -3 -1 -0 -1 -1 0 -3 -0 1 0 -0 -0 1 -3 3 3 3 -2 -0 3 0
-1 1 0 1 2 1 -1 -1 -0 3 1 2 -2 -3 -2 -3 -2 -4 -2 -1 -0 -3 -4 -4 -0 0 3 1 -1 0 -2 2 1 0 -1 0 -0 -1 -2 -0 0 1 0 -1 -2 2 -4 -1 -1 4 -1 -0 4 -3
-4 -0 -1 0 1 -1 -3 -2 0 -1 -1 -1 -3 -0 -2 -0 -3 -4 -1 2 -1 -1 -5 -4 -4 -3 7 4 2 -1 4 1 2 -0 -1 1 -1 -5 -1 -1 -0 4 0 -1 0 -6 0 5 1 -2 -1 2 2 -3
-2 -3 -2 -1 1 2 -1 -1 -2 0 2 -2 1 -0 1 0 -2 2 -0 -2 0 -4 -1 -2 -4 -4 5 -1 -2 1 -1 0 1 -1 0 -0 0 -1 -2 2 3 1 1 3 2 2 -2 -3 1 0 3 2 -2 -3
-1 1 -0 -2 0 3 -0 -2 2 0 -1 1 0 -0 -2 -4 -2 -1 -2 -0 -1 -2 0 -0 -2 -4 -0 1 1 2 1 -2 2 -1 -1 -2 1 -1 -4 -2 -0 -1 -0 -4 3 -3 2 -0 1 -1 1 -1 -5 -2
1 -0 -0 0 1 2 1 -3 3 1 -3 4 -0 -2 -1 1 -2 -2 1 -1 -3 0 -1 -1 3 -4 0 1 0 -1 1 -1 -1 -6 3 -3 1 3 1 -1 -1 -1 1 1 2 7 -2 2 -3 -1 -1 -1 -1 -0
0 0 -2 -1 1 1 -1 2 -2 0 4 -0 -2 -1 2 0 -1 -0 -1 -1 0 0 1 -2 -2 -2 2 -4 -2 -1 -2 -1 -1 -6 -2 1 1 0 1 0 -1 0 1 -2 1 1 5 -0 -4 -2 -1 -2 -3 -2
-4 -2 -2 -0 -2 2 1 1 1 -5 -1 -0 -1 4 -0 -1 -1 -0 -1 -1 1 -5 1 -2 -4 -5 -0 2 -2 0 -1 -3 -2 -0 1 0 0 1 0 1 3 0 -3 -3 4 -1 -0 -0 -0 -2 -2 -3 -1 -0
-2 -1 -2 -1 -1 -1 2 1 1 1 -1 1 0 -2 -2 0 3 1 -1 -1 -1 -1 1 -0 -3 1 1 1 -1 -2 -1 -4 1 -0 -1 0 -1 3 1 0 1 2 -1 0 -1 1 1 -2 -1 1 -4 -2 -2 -2
1 -0 -2 -1 3 3 -1 4 -0 1 0 -2 -1 2 -1 1 -1 -2 -2 -3 -1 0 -1 -1 -1 -2 1 -3 -0 -0 -5 -1 -0 0 -4 -0 -0 -1 1 -1 -2 -1 1 -0 -0 -0 -2 -1 -2 -3 -1 -1 -1 -1
2 -0 0 3 1 3 5 -0 1 1 -2 -2 3 -2 -0 -4 0 0 0 1 3 5 -3 -2 -1 0 -1 -2 0 -0 -1 -1 -3 -4 -2 -2 -2 -4 -2 -1 -0 -1 -1 -1 -2 -2 -1 -2 -0 1 1 0 -1 0
4 11 2 3 3 3 -1 2 -1 -6 -3 0 -0 1 0 1 -0 2 2 -3 1 2 -0 0 -1 -2 -2 -2 1 -2 -0 -3 -4 -0 -1 -0 0 -1 -2 -1 0 0 -1 -2 -1 -0 0 -0 1 2 -1 -2 -1 -0
1 -10 -2 7 7 3 2 1 -4 -4 -1 1 1 0 0 -1 -1 -3 1 -3 3 1 -1 0 -1 -8 -2 -0 0 -1 -2 -2 -1 -0 0 0 -4 -4 -0 -0 -1 -2 -2 -0 -1 0 1 -1 1 -2 -2 -0 -1 -1
-2 2 1 8 -1 3 3 -1 -2 1 -0 -1 -0 -1 -1 -2 0 -0 -0 -0 1 -0 1 -2 2 -0 -1 -1 -3 -1 -1 1 1 -1 -2 -2 1 1 0 -1 -0 -0 -0 -0 2 0 -1 1 -1 -4 -1 -1 -2 -1
-5 -7 -3 -7 -3 -7 -4 -5 -2 0 -1 0 -1 2 1 -1 1 1 -2 1 2 0 1 1 -1 -1 -2 -1 -1 -2 -0 -3 -5 -1 -1 -0 1 -0 -0 0 1 0 -0 -1 -3 -2 2 1 -2 -2 0 -2 -3 -1
-1 -2 -9 -3 5 -3 -4 -2 -3 2 -1 -2 -0 2 -0 -1 0 -2 -0 -2 -1 -1 -1 0 -2 -3 -5 -2 -2 -2 -2 -1 -2 -2 -0 -0 1 0 -1 -1 -2 1 2 -0 0 2 0 -1 -2 -0 -3 -2 2 3
7 5 19 6 -2 -1 4 -0 0 1 1 -0 0 1 -1 0 -1 -1 -3 1 3 -1 -1 -1 -3 1 -2 -2 -1 -1 -1 -2 -5 -1 -6 -3 -2 -0 0 -0 2 0 -1 -1 -1 -1 -1 -1 -0 -0 1 0 -1 -0
7 5 -2 5 -1 -2 -1 1 2 4 0 -0 3 0 -1 -1 -0 -4 -1 1 -1 -5 -0 -2 -5 -1 -1 -1 -1 -1 1 1 1 1 -0 2 -5 -3 -2 -3 -2 -2 -1 -1 0 -1 -1 -1 -0 0 1 0 1 0
2 -0 -1 -6 0 2 -3 2 0 1 -3 0 3 1 0 0 2 2 -1 -2 -4 -2 -1 -0 1 0 -0 -0 -0 -0 0 -1 -2 -1 -1 -0 0 -0 -1 -2 0 -1 -1 -0 1 -0 -0 0 0 2 2 1 1 -0
3 -2 -5 -4 1 -3 2 3 0 1 1 1 1 0 1 -1 3 1 -1 -2 -1 -3 -0 -1 2 0 0 1 -0 0 -1 -1 1 1 0 -1 -1 -0 -0 -0 -1 -0 2 2 -0 0 1 2 2 1 1 1 1 1
-1 -9 7 3 4 -1 1 1 1 -0 -0 -1 0 -0 0 -0 -1 1 -1 -4 -1 -0 1 1 1 1 0 1 1 1 1 -1 -2 -2 -0 0 -1 1 4 3 1 2 0 -1 -1 1 1 1 1 0 -1 -0 1 1
4 -2 -2 -2 0 -3 -2 -1 -0 -2 -0 1 -1 1 -0 -1 2 -4 -2 0 1 -2 -4 -4 -4 -2 1 4 -2 -2 -4 -1 2 0 -0 1 -2 -6 -5 -4 -3 -2 -2 -0 0 -0 1 1 0 -1 0 1 1 1
0 -1 -1 4 4 3 -0 3 3 -2 -0 -1 -1 -0 -0 1 -2 -4 0 1 -1 -2 1 1 -0 0 -0 -3 2 3 1 1 0 -1 -0 0 3 4 3 -2 -2 -1 1 1 0 1 1 1 1 1 1 1 -1 -2
-1 1 -4 -1 1 1 -2 -0 -1 -1 -1 2 -0 -2 -3 -4 -6 -1 -0 2 1 1 0 1 2 -2 -2 -1 -0 -3 -1 2 3 2 1 2 2 3 3 1 0 1 0 -0 -0 0 1 1 0 1 0 -0 -1 -0
-1 1 1 -0 0 0 -1 -1 -1 0 0 2 -3 -1 -1 -0 -1 -0 1 1 -0 -2 -1 -0 2 3 2 4 4 4 4 -2 -7 -4 0 -2 -2 -1 -1 0 1 1 0 0 1 -1 -1 -1 -0 -1 -1 -0 -0 -0
-1 1 -2 0 -1 -1 -1 1 -0 0 0 -0 -1 -1 -1 -1 -1 0 1 0 -1 -3 -1 1 0 1 -1 -2 -4 1 2 1 3 3 -2 -3 -2 1 -0 0 1 0 0 -0 -0 -0 -1 -1 0 0 -0 -1 -1 0
1 -0 -1 -0 -0 1 0 0 -1 0 1 -0 1 -0 -1 -2 -2 -0 1 0 -2 0 1 1 4 4 -1 -3 -2 -2 -3 1 1 -2 -2 -1 -0 0 1 1 1 0 -0 -1 -1 -1 -1 -1 -1 -1 -1 -0 0 -0
-0 1 -3 -0 0 -0 0 -1 -1 -1 0 -0 -1 -0 0 0 -2 -0 -0 1 1 1 2 3 2 -3 1 3 3 2 2 1 -1 -1 0 -0 -0 -0 0 -0 -1 -1 -1 -1 -1 -1 -0 0 -0 -1 -1 -0 -1 -1
1 -0 0 -2 1 1 -1 1 3 1 1 1 0 1 2 -1 -3 0 -0 -0 2 -0 -4 -1 1 0 1 1 1 0 1 1 0 -0 -1 -0 1 0 -1 -1 -1 -1 -1 -1 -1 -0 -1 -1 -1 -1 -1 -1 -1 -1
Height
1376 1381 1386 1392 1397 1401 1406 1410 1414 1419 1423 1426 1430 1433 1437 1439 1442 1444 1446 1449 1450 1453 1457 1459 1460 1461 1463 1463 1467 1462 1461 1459 1457 1458 1456 1456 1449 1448 1447 1448 1444 1446 1447 1452 1446 1448 1455 1468 1457 1461 1476 1476 1476 1476
1377 1383 1389 1395 1400 1405 1409 1413 1417 1421 1425 1429 1431 1434 1437 1440 1444 1446 1448 1450 1452 1454 1457 1458 1459 1460 1461 1462 1463 1463 1465 1463 1461 1463 1460 1460 1456 1455 1454 1451 1450 1455 1459 1461 1466 1475 1480 1479 1478 1477 1477 1477 1479 1478
1379 1384 1391 1397 1402 1407 1411 1415 1419 1423 1426 1429 1432 1435 1438 1442 1445 1448 1450 1452 1453 1454 1457 1458 1460 1461 1462 1461 1463 1464 1464 1464 1463 1462 1462 1461 1455 1459 1457 1465 1461 1463 1462 1467 1472 1483 1482 1483 1482 1481 1480 1480 1481 1482
1383 1389 1394 1400 1405 1409 1413 1417 1421 1425 1428 1431 1434 1437 1440 1443 1447 1451 1452 1453 1454 1457 1459 1460 1460 1461 1462 1462 1463 1463 1464 1463 1462 1461 1460 1461 1461 1459 1461 1466 1471 1472 1469 1470 1477 1483 1484 1485 1485 1484 1484 1484 1484 1485
1386 1392 1397 1402 1406 1409 1413 1418 1423 1426 1430 1433 1435 1439 1442 1446 1449 1452 1454 1455 1456 1460 1460 1459 1459 1459 1461 1462 1463 1463 1464 1464 1462 1461 1462 1461 1461 1461 1463 1466 1472 1474 1474 1474 1475 1477 1480 1485 1486 1486 1485 1487 1487 1485
1390 1395 1400 1404 1407 1411 1415 1420 1425 1428 1432 1435 1438 1441 1444 1448 1450 1453 1455 1458 1458 1459 1460 1463 1461 1459 1461 1462 1462 1463 1463 1463 1463 1462 1461 1460 1461 1462 1465 1473 1476 1474 1473 1473 1475 1477 1480 1485 1486 1488 1487 1488 1487 1488
1393 1397 1401 1405 1409 1413 1418 1423 1427 1430 1434 1436 1440 1444 1446 1449 1451 1455 1457 1458 1458 1461 1462 1463 1460 1459 1459 1461 1461 1462 1462 1462 1462 1461 1460 1459 1460 1462 1470 1482 1476 1476 1477 1477 1478 1481 1485 1486 1487 1488 1489 1489 1488 1489
1395 1400 1404 1408 1412 1416 1421 1426 1430 1433 1435 1438 1443 1446 1449 1451 1454 1457 1458 1459 1460 1462 1463 1464 1463 1460 1459 1459 1460 1460 1460 1460 1460 1460 1459 1458 1460 1462 1475 1474 1475 1477 1478 1480 1481 1480 1481 1484 1487 1488 1490 1489 1489 1492
1398 1403 1407 1411 1414 1419 1423 1428 1431 1434 1438 1441 1445 1448 1451 1453 1456 1457 1459 1461 1462 1465 1462 1462 1467 1466 1459 1459 1459 1459 1459 1462 1460 1459 1458 1458 1463 1470 1470 1471 1474 1476 1477 1480 1481 1482 1483 1487 1488 1491 1491 1491 1492 1494
1401 1405 1409 1413 1417 1420 1425 1430 1433 1437 1441 1444 1447 1450 1452 1454 1456 1459 1461 1462 1462 1463 1463 1462 1461 1462 1461 1458 1458 1460 1459 1461 1462 1458 1456 1461 1470 1471 1471 1473 1474 1476 1478 1480 1482 1484 1487 1488 1490 1491 1492 1494 1495 1495
1403 1407 1411 1415 1419 1422 1427 1431 1434 1439 1442 1445 1448 1450 1453 1455 1458 1460 1461 1463 1463 1463 1461 1459 1460 1461 1460 1461 1460 1459 1461 1460 1463 1459 1457 1460 1467 1471 1472 1474 1475 1476 1478 1480 1483 1485 1486 1488 1490 1491 1493 1495 1496 1498
1405 1409 1413 1416 1420 1425 1429 1433 1436 1440 1444 1447 1448 1451 1455 1457 1459 1460 1462 1462 1461 1458 1456 1457 1457 1459 1459 1458 1458 1459 1460 1461 1463 1458 1457 1459 1468 1469 1472 1474 1475 1477 1479 1481 1484 1485 1488 1490 1491 1493 1494 1496 1498 1499
1407 1411 1414 1418 1423 1427 1431 1435 1439 1443 1446 1448 1449 1452 1454 1458 1459 1458 1463 1457 1461 1451 1453 1454 1457 1457 1459 1459 1459 1460 1461 1468 1459 1459 1456 1463 1466 1469 1472 1474 1476 1479 1481 1482 1485 1487 1489 1490 1492 1495 1496 1498 1499 1500
1409 1413 1417 1421 1425 1429 1433 1438 1441 1444 1447 1447 1448 1452 1454 1455 1452 1451 1451 1450 1447 1447 1450 1453 1455 1457 1458 1459 1460 1460 1461 1459 1459 1465 1458 1463 1465 1468 1471 1474 1476 1478 1481 1483 1485 1487 1489 1491 1493 1496 1498 1499 1499 1500
1411 1415 1419 1424 1428 1432 1436 1439 1442 1445 1447 1448 1448 1449 1449 1446 1447 1447 1447 1447 1448 1449 1451 1454 1456 1457 1458 1461 1462 1460 1462 1458 1461 1460 1457 1459 1463 1467 1470 1473 1476 1478 1481 1483 1486 1488 1490 1493 1495 1496 1497 1499 1500 1500
1412 1417 1420 1425 1430 1434 1437 1441 1444 1447 1448 1447 1447 1445 1444 1445 1447 1447 1447 1449 1450 1451 1453 1455 1457 1461 1462 1461 1460 1461 1461 1463 1456 1455 1456 1459 1462 1467 1470 1473 1476 1478 1481 1483 1486 1489 1491 1493 1495 1497 1498 1499 1499 1500
1414 1416 1421 1427 1432 1436 1439 1443 1447 1448 1448 1447 1444 1444 1444 1446 1446 1448 1448 1450 1451 1453 1454 1455 1458 1458 1455 1457 1457 1454 1460 1456 1453 1455 1456 1459 1462 1466 1470 1473 1475 1478 1481 1484 1486 1490 1492 1494 1495 1497 1498 1499 1499 1500
1417 1421 1425 1429 1432 1438 1441 1444 1447 1447 1446 1445 1445 1445 1445 1446 1446 1448 1449 1451 1452 1453 1453 1453 1452 1455 1453 1458 1459 1453 1454 1455 1455 1456 1458 1461 1464 1467 1469 1472 1475 1478 1481 1484 1488 1490 1491 1493 1495 1497 1498 1499 1499 1499
1419 1423 1427 1431 1435 1439 1442 1446 1446 1445 1445 1444 1445 1445 1446 1447 1447 1448 1450 1451 1452 1452 1452 1452 1453 1453 1454 1448 1448 1450 1451 1452 1453 1456 1459 1461 1464 1466 1469 1472 1475 1478 1481 1484 1487 1489 1491 1493 1495 1496 1497 1497 1497 1497
1422 1426 1430 1434 1438 1440 1442 1444 1445 1444 1443 1444 1445 1446 1446 1447 1448 1449 1450 1451 1453 1453 1452 1451 1447 1445 1446 1446 1446 1447 1449 1450 1452 1454 1457 1460 1463 1465 1468 1470 1473 1477 1481 1484 1487 1489 1491 1492 1493 1494 1495 1495 1495 1495
1425 1429 1434 1437 1440 1441 1441 1440 1441 1441 1442 1443 1443 1445 1446 1447 1448 1449 1450 1451 1453 1450 1446 1442 1442 1443 1444 1445 1445 1445 1447 1448 1449 1451 1452 1456 1460 1463 1466 1470 1473 1477 1479 1482 1485 1487 1490 1491 1493 1494 1494 1494 1494 1493
1425 1430 1434 1439 1441 1441 1439 1439 1439 1440 1442 1442 1443 1444 1445 1446 1447 1449 1450 1450 1446 1440 1440 1438 1440 1441 1441 1442 1443 1445 1446 1447 1449 1451 1452 1455 1456 1460 1464 1467 1472 1475 1479 1482 1485 1486 1488 1490 1491 1492 1492 1491 1490 1489
1428 1433 1436 1440 1441 1440 1439 1437 1438 1439 1441 1442 1443 1444 1444 1444 1445 1447 1447 1444 1438 1435 1435 1436 1437 1439 1440 1441 1442 1443 1445 1446 1448 1449 1451 1454 1457 1461 1465 1469 1472 1476 1479 1482 1484 1486 1487 1488 1489 1489 1489 1488 1487 1486
1431 1433 1435 1435 1435 1435 1435 1434 1436 1437 1439 1441 1441 1443 1441 1442 1444 1445 1442 1435 1430 1430 1431 1432 1434 1435 1438 1439 1441 1442 1443 1446 1448 1450 1452 1454 1458 1462 1466 1469 1473 1476 1478 1481 1483 1484 1485 1486 1487 1486 1486 1485 1484 1483
1432 1432 1429 1427 1429 1431 1432 1432 1433 1435 1438 1438 1440 1440 1438 1440 1443 1441 1435 1426 1424 1426 1428 1430 1432 1433 1435 1437 1439 1442 1444 1446 1448 1450 1452 1456 1459 1463 1467 1470 1472 1475 1477 1479 1480 1482 1483 1483 1483 1483 1482 1481 1480 1479
1420 1418 1419 1418 1421 1423 1424 1429 1431 1431 1432 1433 1434 1434 1436 1438 1438 1435 1424 1422 1423 1424 1426 1428 1430 1432 1435 1437 1438 1440 1443 1447 1449 1450 1454 1457 1460 1462 1465 1468 1470 1473 1475 1477 1478 1479 1480 1480 1480 1480 1480 1479 1477 1476
1414 1412 1412 1413 1413 1414 1416 1417 1419 1423 1428 1429 1429 1432 1433 1433 1428 1423 1422 1422 1422 1424 1425 1427 1429 1431 1433 1435 1439 1441 1444 1447 1449 1452 1454 1458 1461 1465 1467 1468 1470 1472 1473 1475 1476 1477 1477 1478 1478 1478 1477 1476 1475 1474
1408 1409 1410 1410 1410 1411 1412 1414 1416 1419 1418 1417 1422 1426 1426 1424 1423 1421 1421 1421 1422 1423 1424 1426 1428 1430 1433 1435 1438 1440 1443 1446 1449 1452 1455 1458 1461 1464 1466 1468 1469 1470 1472 1473 1474 1474 1475 1475 1476 1475 1475 1473 1472 1470
1406 1406 1407 1408 1409 1409 1410 1410 1410 1411 1413 1414 1416 1419 1419 1419 1419 1419 1420 1420 1421 1423 1424 1425 1427 1430 1432 1435 1438 1441 1444 1446 1449 1451 1454 1456 1459 1462 1464 1466 1468 1469 1470 1471 1472 1472 1473 1473 1473 1473 1472 1471 1470 1468
1402 1404 1405 1406 1407 1408 1409 1409 1409 1410 1411 1412 1413 1415 1417 1417 1418 1419 1420 1420 1422 1423 1424 1426 1428 1430 1432 1434 1438 1441 1444 1447 1450 1452 1454 1456 1459 1461 1463 1465 1467 1468 1469 1470 1470 1471 1472 1472 1472 1471 1470 1469 1467 1465
1399 1401 1403 1404 1406 1407 1407 1408 1409 1410 1412 1412 1413 1414 1415 1417 1417 1418 1420 1420 1422 1423 1425 1426 1428 1431 1433 1436 1438 1441 1444 1447 1449 1452 1454 1456 1458 1460 1462 1464 1466 1467 1468 1469 1470 1471 1471 1471 1470 1469 1468 1466 1464 1461
1398 1399 1401 1405 1407 1407 1408 1409 1410 1411 1411 1412 1413 1414 1415 1416 1417 1417 1418 1420 1422 1423 1425 1427 1429 1431 1435 1437 1440 1442 1444 1446 1449 1452 1454 1456 1457 1459 1462 1463 1465 1467 1468 1469 1469 1469 1469 1469 1468 1466 1464 1462 1460 1457
1398 1399 1401 1404 1406 1407 1408 1409 1409 1410 1411 1411 1411 1412 1413 1414 1415 1416 1416 1418 1421 1423 1425 1428 1430 1432 1435 1437 1439 1442 1444 1447 1449 1452 1454 1456 1458 1460 1462 1463 1465 1467 1468 1468 1468 1468 1467 1466 1465 1463 1461 1459 1456 1454